Hourly Data Report for October 17, 2014

All times are specified in Local Standard Time (LST). Add 1 hour to adjust for Daylight Saving Time where and when it is observed.

PETAWAWA AWOS 2
ONTARIO

45°57'00.000" N
77°19'00.000" W
130.10 m
6106396
71625
YWA

Download Data

Hourly Data (October 2014)
Hourly Data Report for October 17, 2014
Temp Definition
°C
Dew Point Temp Definition
°C
Rel Hum Definition
%
Wind Dir Definition
10's deg

Wind Spd Definition
km/h
Visibility Definition
km
Stn Press Definition
kPa
Hmdx Definition


Wind Chill Definition


Weather Definition


TIME
00:00 15.5 12.5 82 19 7 14.5 98.33     LegendNANA
01:00 14.4 11.5 83 24 6 14.5 98.30     LegendNANA
02:00 13.9 10.1 78 21 7 14.5 98.34     LegendNANA
03:00 13.6 10.2 80 19 7 14.5 98.30     LegendNANA
04:00 13.2 10.2 82 19 7 14.5 98.26     Rain
05:00 13.0 10.0 82 20 6 14.5 98.30     LegendNANA
06:00 13.0 9.8 81 20 6 14.5 98.33     LegendNANA
07:00 12.9 9.3 79 22 6 14.5 98.30     LegendNANA
08:00
09:00
10:00 14.7 8.8 68 21 13 14.5 98.23     LegendNANA
11:00 14.7 9.1 69 21 17 14.5 98.18     LegendNANA
12:00 14.9 9.9 72 18 13 14.5 98.11     LegendNANA
13:00 15.1 9.6 70 23 15 14.5 98.05     LegendNANA
14:00 14.6 10.0 74 22 11 14.5 98.01     Drizzle
15:00 13.1 9.5 79 24 15 4.0 98.04     Rain
16:00 14.8 9.9 72 23 11 14.5 98.05     LegendNANA
17:00 14.0 8.7 70 23 7 14.5 98.07     LegendNANA
18:00 14.2 8.5 68 20 9 14.5 98.08     LegendNANA
19:00 14.1 8.8 70 21 9 14.5 98.09     LegendNANA
20:00 13.7 9.2 74 19 4 14.5 98.09     LegendNANA
21:00 13.2 9.2 77 18 6 14.5 98.06     LegendNANA
22:00 12.7 10.2 85   0 12.9 98.06     Rain
23:00 12.1 9.8 86   0 11.3 98.07     LegendNANA

Notes on Data Quality.

Legend

  • E = Estimated
  • M = Missing
  • NA = Not Available
  • ‡ = Partner data that is not subject to review by the National Climate Archives
Date modified: